Date,TemperatureHighF,TemperatureAvgF,TemperatureLowF,DewpointHighF,DewpointAvgF,DewpointLowF,HumidityHigh,HumidityAvg,HumidityLow,PressureMaxIn,PressureMinIn,WindSpeedMaxMPH,WindSpeedAvgMPH,GustSpeedMaxMPH,PrecipitationSumIn
2014-1-1,31.9,26.5,19.0,19.5,13.3,9.0,84,58,39,30.43,30.25,14,2,14,0.00
2014-1-2,31.7,26.3,12.5,29.6,23.2,9.9,93,88,70,30.35,29.70,33,11,33,0.00
2014-1-3,19.2,11.4,6.0,11.7,4.4,-5.9,91,74,49,30.46,29.56,38,16,39,0.00
2014-1-4,37.7,20.3,2.7,31.7,13.5,-4.7,86,74,61,30.58,30.33,25,6,25,0.00
2014-1-5,46.7,33.0,21.7,45.7,30.7,18.8,97,91,80,30.38,29.92,10,1,13,0.02
2014-1-6,53.5,44.4,31.8,52.9,42.6,22.9,98,94,70,29.92,29.38,24,8,26,0.16
2014-1-9,20.4,17.7,15.6,14.8,12.2,9.9,81,79,74,30.68,30.63,6,2,6,0.00
2014-1-10,39.9,30.4,14.2,39.1,27.8,9.4,97,90,76,30.64,30.29,15,1,15,0.20
2014-1-11,53.1,47.0,38.2,52.4,46.2,37.3,98,97,94,30.29,29.38,41,14,43,0.31
2014-1-12,47.4,42.8,35.4,46.6,33.6,25.4,98,71,48,30.06,29.39,33,8,35,0.05
2014-1-13,46.2,39.6,32.3,43.6,34.8,26.1,94,83,71,30.20,29.97,23,8,23,0.00
2014-1-14,48.3,45.5,43.6,47.7,44.0,41.6,98,95,91,29.97,29.63,24,6,25,0.96
2014-1-15,46.3,39.9,32.4,43.1,38.1,31.2,97,94,84,30.07,29.82,8,2,11,0.00
2014-1-16,42.1,38.0,35.7,40.8,37.2,35.1,98,97,94,29.96,29.86,10,1,11,0.01
2014-1-17,40.6,37.2,32.5,37.9,33.6,28.8,97,87,66,30.04,29.95,18,5,19,0.00
2014-1-18,38.9,36.3,33.2,38.1,34.8,29.9,97,94,88,29.95,29.61,18,4,18,0.54
2014-1-19,37.5,32.8,28.9,29.7,26.2,22.4,87,77,65,29.79,29.64,45,17,45,0.00
2014-1-20,43.4,38.4,29.7,34.4,28.0,15.9,80,66,53,29.90,29.55,32,14,35,0.00
2014-1-21,29.5,18.7,12.5,15.8,9.1,-0.2,89,68,39,30.06,29.78,30,8,30,0.00
2014-1-22,19.4,12.6,7.8,9.0,2.6,-4.4,85,65,42,29.93,29.64,29,10,34,0.00
2014-1-23,20.6,11.3,2.4,6.7,-1.0,-4.7,71,57,36,30.25,29.92,24,6,24,0.00
2014-1-24,21.5,13.1,7.2,13.2,0.1,-3.4,71,56,37,30.33,30.13,37,8,38,0.00
2014-1-25,38.7,31.4,21.0,30.7,24.0,6.5,94,74,52,30.13,29.42,50,26,53,0.00
2014-1-26,36.1,22.4,17.3,30.2,10.9,-3.3,82,62,38,29.93,29.43,25,10,30,0.00
2014-1-27,46.5,38.0,23.1,40.9,28.9,2.4,88,71,36,30.05,29.62,23,10,27,0.00
2014-1-28,23.0,18.7,14.5,4.8,-1.5,-6.8,48,40,29,30.36,30.03,22,5,25,0.00
2014-1-29,26.2,19.1,10.3,15.7,8.1,-1.5,91,64,43,30.28,30.05,15,4,17,0.00
2014-1-30,31.9,23.5,13.8,26.3,10.6,-0.2,80,58,39,30.49,30.24,16,4,18,0.00
2014-1-31,37.4,32.8,25.7,30.8,24.9,16.9,90,73,50,30.26,30.07,18,3,18,0.00
2014-2-1,42.4,37.9,32.9,38.4,30.0,22.0,93,74,49,30.38,30.07,8,2,9,0.00
2014-2-2,44.3,40.3,38.3,40.0,38.1,34.9,97,92,76,30.08,29.92,15,4,16,0.00
2014-2-3,41.9,33.4,27.7,34.9,30.5,26.3,96,90,75,30.31,30.07,14,4,14,0.10
2014-2-4,37.2,28.6,20.0,27.7,24.0,17.6,95,83,63,30.49,30.30,15,3,16,0.08
2014-2-5,33.5,30.4,26.6,32.2,28.8,23.8,96,94,89,30.36,29.60,24,7,28,0.23
2014-2-6,32.0,25.7,22.2,23.9,19.6,14.6,89,78,62,30.29,29.94,19,4,20,0.00
2014-2-7,32.0,25.8,16.3,21.3,15.4,8.9,74,65,45,30.32,30.20,24,6,26,0.00
2014-2-8,30.4,24.4,16.6,17.2,11.6,4.1,69,58,36,30.34,30.14,20,4,20,0.01
2014-2-9,33.4,26.3,19.0,24.1,17.5,8.0,93,69,57,30.17,29.99,17,5,18,0.00
2014-2-10,30.2,24.3,17.4,24.4,12.9,6.0,93,63,41,30.26,29.96,19,5,20,0.00
2014-2-11,26.0,18.7,12.2,9.3,5.3,2.6,75,56,39,30.46,30.26,16,4,18,0.00
2014-2-12,30.3,19.4,5.9,24.0,10.4,-1.5,77,67,56,30.59,30.39,12,3,14,0.00
2014-2-13,38.1,33.6,27.4,37.3,32.0,23.9,97,94,77,30.39,29.00,34,12,35,1.03
2014-2-14,41.2,35.4,31.3,34.4,29.8,25.1,97,81,54,29.81,28.85,31,12,33,0.05
2014-2-15,35.3,30.8,26.7,29.7,25.2,22.9,94,80,69,29.87,29.64,14,3,15,0.00
2014-2-23,47.0,41.8,36.8,37.5,34.3,29.6,92,76,55,29.94,29.81,21,5,21,0.00
2014-2-24,42.7,34.4,24.6,36.1,19.0,6.7,90,55,35,30.03,29.78,24,7,27,0.00
2014-2-25,29.9,24.7,20.5,18.8,11.0,6.7,67,56,43,30.07,29.92,31,7,34,0.00
2014-2-26,31.1,23.7,15.6,21.8,9.2,-4.3,71,54,34,30.01,29.79,29,7,29,0.00
2014-2-27,31.0,21.6,11.0,25.8,8.3,-5.7,92,57,38,30.00,29.63,28,8,31,0.00
2014-2-28,25.3,16.9,9.5,7.1,-4.8,-8.6,58,38,22,30.48,30.00,25,6,25,0.00
2014-3-1,35.7,26.2,11.6,31.0,15.7,-6.1,83,65,40,30.48,30.16,23,8,24,0.00
2014-3-2,37.2,34.8,31.2,29.9,25.2,17.0,89,68,51,30.17,29.99,19,4,20,0.00
2014-3-3,32.7,22.5,12.0,18.8,7.9,-0.2,87,54,42,30.33,29.98,14,5,20,0.00
2014-3-4,25.7,19.4,8.3,13.5,4.8,-2.2,63,53,32,30.42,30.29,20,5,20,0.00
2014-3-5,34.5,27.4,21.8,21.9,15.7,11.6,80,62,42,30.47,30.25,25,5,26,0.00
2014-3-6,29.3,21.8,13.4,16.8,8.7,-0.1,82,58,35,30.64,30.47,14,6,21,0.00
2014-3-7,37.1,28.3,17.0,28.2,21.4,13.3,89,76,61,30.54,29.93,17,5,17,0.00
2014-3-8,55.3,40.8,30.8,36.0,28.8,24.2,84,64,33,29.93,29.72,21,7,21,0.00
2014-3-9,42.2,37.3,33.0,27.8,16.5,5.7,69,44,30,29.98,29.87,22,6,22,0.00
2014-3-10,38.4,35.1,31.6,35.9,27.9,7.7,93,77,34,29.95,29.69,21,7,23,0.00
2014-3-11,49.9,41.2,35.4,39.9,36.4,34.0,95,84,62,29.76,29.55,22,6,26,0.00
2014-3-12,48.7,43.8,38.4,47.2,40.2,32.7,98,87,72,29.74,28.98,30,8,41,0.26
2014-3-13,48.0,23.5,15.8,47.4,15.8,3.1,98,73,51,30.02,28.98,24,9,31,0.03
2014-3-14,38.6,27.3,14.4,35.3,17.6,2.9,89,67,48,30.25,30.00,37,12,40,0.00
2014-3-15,53.2,42.6,37.8,39.2,35.2,29.3,92,77,40,30.00,29.73,28,9,30,0.00
2014-3-16,42.2,32.7,28.0,29.8,10.5,-1.7,66,41,24,30.23,29.95,24,7,24,0.00
2014-3-17,31.0,25.6,19.6,18.0,5.5,-1.5,77,43,27,30.19,30.07,20,7,23,0.00
2014-3-18,37.9,28.6,19.0,26.2,18.5,5.1,83,67,48,30.37,30.18,18,5,18,0.00
2014-3-19,40.4,34.2,25.7,36.6,28.3,21.8,92,79,66,30.40,29.98,15,6,18,0.00
2014-3-20,53.4,44.4,38.8,44.1,37.1,24.1,97,78,36,29.99,29.67,24,10,30,0.47
2014-3-21,47.5,40.5,33.3,28.8,22.9,19.3,72,50,35,30.10,29.83,25,9,27,0.00
2014-3-22,51.7,40.4,29.3,41.0,30.3,19.4,82,68,42,30.10,29.73,34,8,34,0.00
2014-3-23,44.1,36.3,29.6,29.4,19.0,9.2,85,52,27,30.06,29.93,20,5,23,0.00
2014-3-24,34.3,26.4,17.3,10.5,1.3,-2.9,47,34,23,30.22,30.06,26,7,27,0.00
2014-3-25,34.1,28.2,17.2,20.4,12.9,2.1,65,53,37,30.20,29.86,22,4,23,0.00
2014-3-26,35.3,30.9,25.9,24.9,13.4,-3.1,90,51,26,30.08,29.59,39,15,46,0.00
2014-3-27,37.6,30.1,21.4,31.0,12.7,-2.5,77,50,26,30.38,30.08,29,11,30,0.00
2014-3-28,46.4,42.1,36.9,42.3,38.5,30.5,94,87,76,30.32,30.02,29,12,31,0.07
2014-3-29,50.1,43.4,36.9,45.3,41.5,35.7,97,93,78,30.25,29.90,21,6,21,1.34
2014-3-30,53.2,45.1,36.3,52.6,44.4,35.5,98,97,97,29.91,29.53,33,11,33,3.66
2014-3-31,40.0,37.2,35.0,36.5,34.3,30.6,97,90,72,30.01,29.65,32,9,32,0.08
2014-4-1,42.9,38.1,33.8,30.9,29.4,27.8,80,71,61,30.09,30.01,16,6,17,0.00
2014-4-9,59.4,52.6,43.2,39.8,24.3,16.1,69,34,25,30.01,29.65,21,8,28,0.00
2014-4-10,45.8,42.1,33.6,42.1,30.9,15.9,87,66,33,30.24,30.01,32,11,34,0.00
2014-4-11,49.2,46.7,44.6,45.0,42.8,40.3,92,86,82,30.09,29.99,28,9,31,0.00
2014-4-12,64.1,51.4,43.9,46.5,41.2,27.0,92,71,28,30.27,29.99,22,7,23,0.00
2014-4-13,53.5,47.5,40.4,49.2,44.1,37.9,95,88,78,30.29,30.10,22,7,23,0.00
2014-4-14,53.2,50.9,49.4,50.3,48.7,47.1,96,92,88,30.12,29.98,27,12,29,0.00
2014-4-15,53.4,50.5,40.8,52.8,49.2,40.0,98,96,89,29.98,29.63,46,20,49,0.66
2014-4-16,46.7,38.7,31.7,39.9,23.9,15.7,97,60,29,30.61,29.77,25,8,27,0.48
2014-4-17,44.1,38.2,33.8,31.9,26.3,18.2,77,62,50,30.78,30.61,25,10,26,0.00
2014-4-18,45.7,39.2,30.9,37.0,33.2,27.7,91,79,65,30.64,30.28,20,6,20,0.00
2014-4-19,64.1,49.1,37.2,41.2,36.6,28.9,94,67,28,30.41,30.19,20,5,22,0.00
2014-4-20,47.8,44.2,38.9,39.5,32.9,26.0,91,66,44,30.53,30.37,24,7,24,0.00
2014-4-21,50.9,43.3,31.4,44.9,39.9,30.3,97,88,73,30.37,29.91,12,4,12,0.00
2014-4-22,49.7,47.2,43.0,46.9,44.8,41.6,97,92,86,29.91,29.53,19,8,19,0.03
2014-4-23,55.9,49.4,44.8,50.6,43.2,33.1,99,81,54,29.67,29.46,35,8,35,0.19
2014-4-24,59.1,50.4,42.3,33.5,26.4,18.9,60,40,27,29.95,29.67,40,12,45,0.00
2014-4-25,55.7,47.0,41.4,41.2,33.8,26.2,88,62,41,30.04,29.89,16,8,17,0.00
2014-4-26,48.4,45.6,43.6,43.9,42.1,40.2,94,88,79,29.90,29.77,17,5,20,0.21
2014-4-27,50.7,45.7,43.1,44.9,41.2,38.2,94,85,69,30.09,29.88,18,5,19,0.01
2014-4-28,54.7,47.5,40.9,42.2,38.8,35.0,80,72,56,30.22,30.02,18,6,18,0.00
2014-4-29,47.6,44.8,42.1,41.2,37.9,35.8,88,77,66,30.53,30.21,23,9,31,0.00
2014-4-30,45.4,43.2,41.4,44.4,40.0,36.5,97,89,80,30.51,30.16,23,8,23,1.15
2014-5-1,53.8,49.1,45.4,53.2,48.4,44.4,98,98,97,30.16,29.71,34,9,35,1.11
2014-5-2,56.9,52.2,46.0,53.8,46.6,42.5,99,82,59,29.85,29.70,25,7,25,0.02
2014-5-3,59.9,50.6,41.7,48.8,44.3,39.8,95,80,53,29.91,29.77,22,6,25,0.00
2014-5-4,58.2,52.6,48.2,49.1,44.3,38.2,92,74,54,29.78,29.57,32,13,36,0.02
2014-5-5,66.0,56.2,47.6,45.0,41.9,38.7,78,60,43,29.88,29.67,22,7,23,0.00
2014-5-6,64.7,53.7,43.4,44.8,38.9,33.7,89,60,33,30.06,29.86,23,6,23,0.00
2014-5-7,59.2,50.9,45.1,44.7,37.9,30.9,87,62,42,30.24,30.06,22,7,22,0.00
2014-5-8,53.2,49.7,44.3,52.3,47.9,42.6,98,94,85,30.23,30.13,11,3,12,0.01
2014-5-9,56.1,52.9,50.4,53.8,50.7,47.9,98,93,80,30.26,30.10,15,4,16,0.02
2014-5-10,58.3,54.0,50.4,57.7,53.0,50.1,99,97,91,30.11,29.84,18,9,20,0.00
2014-5-11,69.3,59.0,52.5,59.6,51.4,46.3,99,77,45,30.07,29.84,23,8,25,0.11
2014-5-12,66.5,57.5,51.6,54.5,50.4,41.2,92,78,49,30.15,30.05,22,6,23,0.00
2014-5-13,61.6,54.1,47.9,56.7,45.5,41.1,93,73,57,30.34,30.05,29,11,29,0.00
2014-5-14,55.4,49.9,47.4,50.6,46.2,43.0,91,87,82,30.38,30.31,18,6,18,0.00
2014-5-25,57.9,54.2,51.8,54.6,52.4,50.7,98,94,87,30.12,30.06,18,5,19,0.15
2014-5-26,63.7,58.3,51.6,58.2,54.8,50.6,98,88,76,30.07,29.87,18,7,23,0.01
2014-5-27,71.3,61.1,53.7,60.6,56.3,52.1,95,85,66,29.90,29.83,17,5,19,0.04
2014-5-28,54.6,51.8,47.9,52.1,48.6,43.8,96,89,84,30.20,29.86,26,11,28,0.00
2014-5-29,61.2,51.7,42.2,49.5,44.7,39.7,93,78,59,30.25,30.18,17,6,17,0.00
2014-5-30,56.9,51.7,42.5,50.1,46.6,41.1,96,83,66,30.19,30.04,19,6,20,0.02
2014-5-31,65.2,57.2,48.4,52.6,46.5,31.3,96,71,29,30.30,30.05,22,6,24,0.01
2014-6-1,74.9,60.7,45.9,54.1,46.0,37.5,90,61,33,30.34,30.28,18,5,18,0.00
2014-6-2,63.1,59.4,53.6,56.4,54.2,51.4,96,83,72,30.29,30.06,19,8,22,0.00
2014-6-3,70.1,61.4,54.0,60.8,55.7,50.8,94,82,71,30.07,29.90,8,3,11,0.00
2014-6-4,63.2,58.7,57.0,57.6,54.7,49.6,98,87,73,29.91,29.79,11,3,11,0.01
2014-6-5,62.0,59.9,56.4,61.4,58.9,55.5,98,97,94,29.81,29.61,21,4,22,0.65
2014-6-6,75.2,64.7,54.6,58.1,55.3,52.4,97,74,48,29.90,29.75,16,4,19,0.00
2014-6-7,74.0,64.7,57.3,60.4,57.4,53.6,91,78,57,29.97,29.90,22,6,23,0.00
2014-6-8,77.2,67.9,58.7,63.7,59.2,55.3,93,75,55,29.96,29.90,14,4,14,0.00
2014-6-9,65.7,62.9,59.0,62.7,60.5,57.2,96,92,81,30.03,29.93,16,4,18,0.32
2014-6-10,66.9,64.1,62.5,64.9,62.4,59.1,97,94,87,30.06,29.97,18,6,21,0.03
2014-6-11,68.8,63.3,59.6,60.3,56.0,52.9,89,78,61,30.16,30.06,18,7,21,0.00
2014-6-12,67.0,61.8,59.7,61.1,57.6,53.8,91,86,80,30.15,30.04,12,4,18,0.00
2014-6-13,68.3,62.9,60.5,67.0,61.9,57.8,98,96,91,30.04,29.77,16,4,17,0.84
2014-6-14,76.8,66.2,57.4,68.4,61.2,49.8,99,85,61,29.94,29.81,15,4,17,0.00
2014-6-15,78.8,66.6,54.7,59.5,54.9,49.8,86,68,47,30.07,29.93,20,5,20,0.00
2014-6-16,76.5,64.7,56.8,59.3,54.6,48.4,91,71,40,30.16,30.06,18,6,19,0.00
2014-6-17,66.0,63.8,61.6,63.7,61.4,58.8,98,92,87,30.11,29.92,19,9,20,0.00
2014-6-18,84.5,73.9,62.1,68.8,64.7,61.5,98,75,53,29.95,29.79,30,7,30,0.00
2014-6-19,72.2,67.4,62.9,66.0,63.7,61.2,97,88,73,30.01,29.92,19,5,22,0.16
2014-6-20,76.6,66.6,54.2,61.2,48.7,40.5,96,56,33,29.99,29.88,22,4,22,0.00
2014-6-21,67.5,61.9,52.9,57.1,50.6,44.4,85,67,47,30.00,29.91,22,6,22,0.00
2014-6-22,75.5,63.9,54.8,59.8,53.8,45.3,91,71,39,30.05,29.93,17,5,18,0.00
2014-6-23,69.3,63.9,55.7,62.6,58.0,54.1,96,82,62,30.20,30.05,15,4,15,0.00
2014-6-24,70.5,66.4,62.2,64.0,61.7,57.6,94,85,74,30.20,30.07,26,11,30,0.00
2014-6-25,70.9,67.7,65.0,68.6,65.7,63.0,97,93,90,30.07,29.90,21,10,21,0.00
2014-6-26,74.8,68.2,62.1,71.1,66.5,59.4,98,95,86,30.01,29.81,21,8,23,0.29
2014-6-27,77.6,67.1,57.6,60.3,54.9,43.0,95,69,30,30.22,30.01,18,4,23,0.00
2014-6-28,72.7,65.1,55.6,62.8,58.4,52.3,94,80,51,30.31,30.22,17,4,19,0.00
2014-6-29,70.5,65.1,58.9,65.2,62.3,58.0,97,91,72,30.30,30.16,20,7,21,0.01
2014-6-30,71.0,68.0,65.2,68.0,66.0,63.4,97,93,89,30.16,29.99,25,12,27,0.00
2014-7-1,72.2,69.4,66.8,69.7,67.7,65.9,98,95,91,29.99,29.88,28,12,30,0.00
2014-7-2,73.9,70.8,68.1,71.0,69.0,66.7,98,94,89,29.99,29.88,26,11,27,0.00
2014-7-3,76.0,72.1,69.3,73.6,70.5,68.0,99,95,85,30.03,29.93,20,7,20,0.04
2014-7-4,72.7,67.7,61.4,72.0,66.6,60.8,98,97,91,30.01,29.74,29,8,32,3.61
2014-7-5,64.7,62.4,60.9,63.5,58.7,55.3,96,88,81,29.91,29.81,18,8,21,0.00
2014-7-8,72.1,68.5,68.6,99.9,68.6,67.0,96,91,89,29.85,0.00,24,-10,26,0.00
2014-7-9,72.3,68.9,66.4,99.9,66.7,64.2,98,91,87,29.97,29.74,30,7,30,0.00
2014-7-10,80.3,70.9,66.4,99.9,65.9,62.9,99,82,60,30.15,0.00,15,3,17,0.06
2014-7-11,77.8,69.5,63.8,68.2,64.0,60.2,95,83,59,30.23,30.13,12,3,13,0.00
2014-7-12,71.8,67.5,61.8,66.8,64.3,60.3,97,90,75,30.25,30.17,17,6,18,0.00
2014-7-13,71.3,68.5,65.5,69.4,67.2,64.9,99,96,93,30.18,29.97,20,8,20,0.01
2014-7-14,71.8,68.7,67.3,70.1,67.9,66.4,100,98,92,29.97,29.90,22,8,23,0.03
2014-7-15,71.4,69.2,67.8,71.0,69.1,67.6,100,100,98,29.92,29.79,21,9,21,0.01
2014-7-16,69.8,67.5,65.2,69.6,67.4,65.1,100,100,99,29.88,29.78,20,5,22,2.05
2014-7-17,74.9,68.1,63.6,66.6,63.9,61.3,100,87,68,30.09,29.87,13,4,13,0.01
2014-7-18,78.3,69.2,60.9,67.2,62.2,57.1,94,79,54,30.25,30.09,11,3,11,0.00
2014-7-19,76.0,69.0,62.6,68.5,62.3,57.6,98,81,57,30.29,30.22,10,1,12,0.00
2014-7-20,74.7,69.5,64.6,65.5,62.1,58.4,91,78,64,30.22,30.12,14,4,14,0.00
2014-7-21,79.0,69.4,64.3,67.2,63.8,61.4,95,83,60,30.20,30.13,14,5,15,0.00
2014-7-22,77.0,70.5,64.3,70.2,66.8,62.2,96,88,78,30.18,30.05,14,3,15,0.00
2014-7-23,75.8,72.0,69.4,71.2,69.1,66.5,96,91,84,30.05,29.80,16,4,16,0.02
2014-7-24,80.0,73.3,68.8,71.7,68.7,65.7,96,86,72,29.91,29.76,14,2,14,0.00
2014-7-25,78.0,70.8,62.9,66.0,62.1,54.7,95,75,47,30.02,29.90,8,0,9,0.00
2014-7-26,76.3,70.7,65.1,70.0,66.9,61.8,95,88,78,30.02,29.93,4,0,4,0.00
2014-7-27,74.5,71.7,70.2,71.7,69.0,66.4,97,92,85,29.93,29.69,10,0,12,0.08
2014-7-28,77.7,73.1,70.5,73.3,70.1,64.7,98,91,81,29.72,29.51,13,0,13,0.06
2014-7-29,73.8,69.3,62.9,65.1,63.2,59.8,91,81,67,29.97,29.59,1,0,14,0.00
2014-7-30,75.5,69.0,60.6,64.6,62.0,57.3,96,79,57,30.07,29.96,2,0,2,0.00
2014-7-31,76.0,69.8,60.6,69.3,65.6,59.1,97,87,73,30.19,30.07,7,0,10,0.00
2014-8-1,76.5,72.1,68.3,71.6,68.8,66.4,95,90,83,30.25,30.19,6,0,7,0.00
2014-8-2,70.7,66.3,62.3,69.0,63.8,58.3,96,92,68,30.24,30.11,11,0,11,0.80
2014-8-3,70.5,66.6,62.7,67.6,64.4,61.7,97,93,86,30.15,30.05,8,2,9,0.02
2014-8-4,74.8,70.6,66.4,70.8,68.1,65.3,97,92,83,30.08,30.04,12,1,15,0.00
2014-8-5,77.5,71.8,67.8,72.5,69.7,66.9,98,93,83,30.05,29.91,11,1,11,0.00
2014-8-6,80.1,72.5,65.4,69.9,67.0,60.7,97,84,62,29.91,29.79,12,0,13,0.00
2014-8-7,80.3,69.1,62.2,67.0,60.6,55.1,92,75,44,29.98,29.85,18,0,18,0.02
2014-8-8,81.3,68.8,58.6,66.9,61.1,55.1,91,78,48,30.05,29.97,7,0,10,0.00
2014-8-9,82.0,71.4,63.2,68.2,63.6,57.9,93,77,54,30.10,30.03,1,0,4,0.00
2014-8-10,85.3,72.6,64.0,68.3,64.6,56.9,96,78,39,30.15,30.08,10,1,11,0.00
2014-8-11,75.5,70.8,65.3,68.1,66.5,63.2,97,87,72,30.18,30.13,12,3,13,0.00
2014-8-12,73.7,69.8,64.1,69.0,67.3,63.2,98,92,84,30.14,29.99,22,8,22,0.01
2014-8-13,72.4,69.9,66.7,70.3,67.9,64.9,96,94,90,29.99,29.62,22,8,23,0.38
2014-8-14,74.8,67.3,60.8,65.0,59.2,50.8,94,76,45,29.89,29.70,26,6,26,0.00
2014-8-15,70.9,66.3,60.0,65.6,58.1,47.5,94,76,48,29.98,29.84,27,7,27,0.00
2014-8-16,71.5,65.6,56.5,65.1,60.0,52.2,91,82,72,30.02,29.92,24,7,24,0.00
2014-8-17,76.2,69.9,63.7,67.1,64.6,59.3,97,84,65,29.93,29.79,22,6,24,0.00
2014-8-18,76.7,67.1,59.3,63.5,57.6,52.2,90,73,49,29.89,29.80,25,5,26,0.00
2014-8-19,74.7,66.8,56.7,64.7,57.5,51.8,94,73,52,29.97,29.88,7,0,8,0.00
2014-8-20,74.7,67.5,59.6,67.3,63.0,58.3,98,86,72,30.05,29.96,0,0,6,0.01
2014-8-21,77.3,68.3,59.7,67.7,63.6,58.4,97,86,67,30.10,30.04,0,0,27,0.00
2014-8-22,73.5,69.1,65.5,66.5,63.8,59.5,94,84,69,30.09,30.05,0,0,0,0.01
2014-8-23,75.0,68.6,60.6,63.7,60.3,55.3,92,76,58,30.13,30.06,0,0,1,0.00
2014-8-24,76.3,66.7,57.6,62.8,58.1,53.8,92,75,52,30.15,30.12,0,0,0,0.00
2014-8-25,83.5,69.4,59.7,69.2,63.4,56.3,93,82,53,30.16,30.12,0,0,0,0.00
2014-8-26,75.8,70.2,62.9,67.5,64.7,61.3,96,84,66,30.20,30.09,0,0,0,0.00
2014-8-27,75.3,70.7,63.5,70.0,67.1,62.0,96,89,76,30.09,29.87,22,4,23,0.00
2014-8-28,80.3,72.4,63.4,67.5,60.2,53.0,94,68,46,30.01,29.79,21,5,24,0.00
2014-8-29,74.6,65.8,56.3,60.5,55.6,50.9,83,71,51,30.29,30.00,14,5,16,0.00
2014-8-30,70.8,66.6,57.6,66.1,61.2,55.2,94,83,73,30.33,30.17,19,8,20,0.00
2014-8-31,73.7,71.1,68.7,71.3,68.8,65.9,97,93,88,30.18,29.99,25,12,26,1.71
2014-9-1,76.2,72.2,70.1,72.7,70.5,69.1,98,95,89,30.02,29.94,18,8,19,0.00
2014-9-2,76.0,72.5,69.8,73.8,71.2,69.1,99,96,91,29.96,29.78,20,8,20,0.00
2014-9-3,80.9,74.4,66.4,71.1,64.4,58.3,93,72,49,30.09,29.75,20,6,24,0.00
2014-9-4,79.8,70.1,60.0,69.9,63.3,57.2,97,81,58,30.21,30.09,19,5,20,0.00
2014-9-5,70.0,69.8,69.7,69.3,69.0,68.7,98,98,97,30.17,30.15,9,5,10,0.00
2014-9-18,61.9,61.4,60.6,52.3,51.8,51.5,73,71,69,30.10,30.06,10,4,11,0.00
2014-9-19,61.2,55.9,50.6,52.3,43.7,38.9,76,64,46,30.43,30.11,18,6,20,0.00
2014-9-20,69.3,62.8,52.5,62.5,54.8,44.4,90,75,66,30.41,30.10,21,7,22,0.00
2014-9-21,73.9,69.2,64.4,70.4,67.1,61.3,98,93,88,30.11,29.59,13,4,15,0.00
2014-9-22,73.1,65.9,51.5,67.4,55.7,41.4,98,72,46,30.13,29.59,19,6,25,0.00
2014-9-23,64.1,55.0,43.5,53.2,46.2,40.3,90,73,56,30.43,30.13,22,5,22,0.00
2014-9-24,69.0,60.9,53.2,59.2,54.4,49.2,90,80,66,30.61,30.43,17,5,17,0.00
2014-9-25,61.2,59.5,57.8,59.1,56.5,53.9,96,90,82,30.53,30.20,13,6,19,0.26
2014-9-26,73.4,62.6,54.5,57.8,53.8,38.9,95,76,29,30.20,30.14,18,6,19,0.00
2014-9-27,72.8,63.7,54.0,63.8,57.5,51.5,93,81,63,30.21,30.14,11,3,12,0.00
2014-9-28,70.8,64.8,56.7,66.8,61.6,54.9,95,90,82,30.19,30.02,18,6,19,0.00
2014-9-29,68.2,65.6,62.5,65.9,64.0,61.0,97,95,91,30.02,29.94,12,3,16,0.00
2014-9-30,62.4,59.2,57.1,61.2,57.4,55.6,96,94,92,30.03,29.96,15,7,19,0.03
2014-10-1,59.6,58.3,56.9,58.4,57.2,55.5,98,96,95,30.07,29.98,19,8,21,1.01
2014-10-2,59.1,56.5,50.0,57.4,54.6,48.1,98,94,86,30.17,30.05,19,7,21,0.37
2014-10-3,59.7,54.3,48.0,54.4,51.2,46.1,96,90,80,30.14,29.91,13,4,18,0.00
2014-10-4,66.6,60.0,54.5,65.4,58.6,53.4,99,95,89,29.91,29.55,24,5,24,0.16
2014-10-5,58.9,53.4,47.0,57.4,45.3,37.6,97,75,58,29.99,29.60,24,7,26,0.00
2014-10-6,64.9,56.3,42.9,59.1,47.5,38.1,94,73,49,30.16,29.99,23,6,23,0.00
2014-10-7,69.7,66.0,62.2,64.4,62.3,59.0,97,88,75,30.15,29.99,27,11,31,0.00
2014-10-8,68.2,65.9,60.2,65.5,60.7,52.5,95,84,61,29.99,29.77,35,16,41,0.20
2014-10-9,64.7,58.2,47.5,53.5,46.1,38.4,90,65,44,30.02,29.90,28,9,33,0.00
2014-10-10,61.7,55.6,46.5,48.2,44.6,40.2,80,67,49,30.15,30.01,19,4,24,0.00
2014-10-11,55.0,50.3,43.4,49.7,47.0,42.3,97,89,71,30.16,30.05,11,4,16,0.50
2014-10-12,61.8,50.6,41.5,46.2,42.9,39.8,95,77,46,30.34,30.15,11,3,15,0.00
2014-10-13,63.7,54.5,40.2,58.6,49.4,38.6,95,84,69,30.39,30.29,22,8,24,0.00
2014-10-14,69.4,65.7,62.1,64.8,63.1,58.7,95,92,84,30.30,30.17,20,9,22,0.00
2014-10-15,70.1,67.5,65.4,67.3,65.4,63.6,96,93,89,30.17,29.95,20,10,22,0.00
2014-10-16,69.0,66.3,63.5,67.5,65.1,61.2,98,96,92,29.96,29.69,26,9,28,0.67
2014-10-17,66.5,64.1,61.5,62.8,60.6,58.8,96,89,79,29.73,29.64,24,13,29,0.00
2014-10-18,67.5,63.5,56.9,63.5,59.6,51.4,94,88,70,29.70,29.53,24,12,26,0.00
2014-10-19,56.9,51.1,39.9,51.1,40.3,29.8,84,67,50,30.02,29.65,18,6,26,0.00
2014-10-20,60.3,47.8,33.6,52.6,38.7,28.9,84,71,56,30.13,30.01,26,10,30,0.00
2014-10-21,65.0,59.9,52.8,60.3,56.0,49.6,96,87,73,30.02,29.88,24,6,32,0.00
2014-10-22,58.1,54.7,51.1,55.6,53.0,49.8,98,94,88,29.96,29.62,33,12,44,0.51
2014-10-23,58.0,53.8,50.4,53.8,51.3,49.0,98,92,83,29.69,29.54,28,13,34,0.10
2014-10-24,55.2,52.1,50.0,49.1,47.3,43.7,94,84,76,29.79,29.64,18,5,23,0.02
2014-10-25,62.0,54.5,44.4,55.4,47.9,41.1,92,79,59,29.83,29.54,21,8,26,0.00
2014-10-26,61.7,54.5,48.8,55.2,43.8,39.6,85,68,52,29.78,29.48,23,7,28,0.00
2014-10-27,62.9,52.6,43.9,44.7,42.2,39.9,90,69,47,30.06,29.79,13,4,17,0.00
2014-10-28,64.3,55.1,40.8,60.2,52.1,38.5,96,90,79,30.09,29.95,24,8,27,0.00
2014-10-29,65.0,61.4,52.5,62.3,58.5,47.2,96,91,64,29.96,29.80,19,8,21,0.04
2014-10-30,60.9,51.3,43.8,50.4,41.5,37.5,93,71,44,30.01,29.91,16,4,17,0.00
2014-10-31,54.9,48.3,40.1,47.3,42.4,36.4,90,80,71,30.04,29.90,20,6,22,0.01
2014-11-1,50.4,45.7,41.1,45.9,41.7,38.1,97,86,70,29.91,29.70,31,12,32,0.09
2014-11-2,44.5,40.1,36.6,99.9,30.5,16.7,95,69,40,29.92,29.58,35,13,37,0.10
2014-11-3,54.3,44.6,33.0,39.5,27.1,17.5,63,51,32,30.10,29.92,23,6,27,0.00
2014-11-4,59.9,54.3,45.8,53.9,41.7,28.4,86,64,32,30.17,30.06,20,7,21,0.00
2014-11-5,61.4,57.7,48.9,55.8,51.1,40.8,89,79,64,30.15,30.02,24,9,25,0.00
2014-11-6,54.1,50.1,48.0,53.2,47.5,39.1,98,91,66,30.14,29.52,27,4,28,0.47
2014-11-7,51.2,45.9,37.4,49.2,39.4,31.5,98,79,56,29.87,29.49,24,6,26,0.00
2014-11-8,50.0,41.7,32.7,42.2,32.2,25.7,80,69,52,30.04,29.86,29,10,30,0.00
2014-11-9,54.6,50.0,39.1,46.1,40.9,35.9,91,71,60,30.03,29.91,26,7,30,0.00
2014-11-10,55.7,47.0,34.4,49.5,39.1,31.1,96,75,53,30.23,30.03,15,3,15,0.00
2014-11-11,60.1,53.3,41.6,56.5,50.9,39.8,98,92,78,30.21,29.97,11,2,11,0.00
2014-11-12,59.2,53.6,44.2,57.5,50.4,33.8,99,90,52,30.02,29.88,26,4,26,0.01
2014-11-13,50.0,43.5,34.1,37.7,32.7,27.9,88,66,48,30.12,29.96,13,4,14,0.01
2014-11-14,42.9,36.1,31.4,36.4,28.8,22.3,97,76,46,30.15,29.92,20,5,21,0.23
2014-11-15,39.4,32.4,27.0,23.5,19.9,15.7,78,61,40,30.39,30.15,14,3,15,0.00
2014-11-16,45.9,36.7,24.0,35.8,27.6,18.0,83,70,53,30.44,30.15,11,1,12,0.00
2014-11-17,58.0,47.1,39.7,57.4,45.8,34.9,99,95,78,30.15,29.46,39,8,39,1.17
2014-11-18,50.2,36.8,25.3,48.6,23.1,6.4,95,60,33,30.03,29.49,30,10,35,0.00
2014-11-19,38.5,29.9,20.8,30.2,16.0,6.7,72,56,37,30.22,30.03,30,12,34,0.00
2014-11-20,47.3,41.6,32.3,33.3,28.1,16.1,71,59,44,30.11,29.82,31,13,34,0.00
2014-11-21,35.4,29.9,24.8,22.4,14.2,10.0,76,53,38,30.49,29.96,25,6,26,0.00
2014-11-22,45.8,35.9,23.4,36.0,23.5,11.2,71,61,49,30.50,30.16,36,14,37,0.00
2014-11-23,52.9,47.6,43.3,44.3,38.2,31.9,93,70,52,30.22,30.11,33,11,34,0.00
2014-11-24,60.7,56.6,43.9,59.9,55.4,42.0,98,96,93,30.11,29.67,48,18,50,0.34
2014-11-25,56.4,53.7,47.8,55.8,48.4,36.2,99,84,58,30.16,29.77,20,8,23,0.00
2014-11-26,48.5,41.3,33.8,40.3,36.0,32.5,98,83,58,30.21,29.60,33,9,36,0.99
2014-11-27,40.9,34.7,31.3,99.9,33.3,29.8,98,90,73,30.03,29.67,28,4,28,0.02
2014-11-28,37.3,31.7,25.8,30.0,23.5,16.8,94,73,51,30.26,30.00,24,7,28,0.00
2014-11-29,43.3,30.9,21.5,36.7,21.7,16.0,81,69,50,30.39,30.26,21,6,22,0.00
2014-11-30,54.0,50.9,43.4,49.2,45.7,36.0,91,83,73,30.29,30.09,33,15,35,0.00
2014-12-1,57.2,51.0,40.7,50.9,46.6,35.8,93,85,59,30.43,30.08,23,9,24,0.04
2014-12-2,43.6,39.0,36.0,41.9,31.4,23.9,94,75,61,30.69,30.37,26,9,30,0.05
2014-12-3,51.1,47.1,41.4,49.7,45.0,32.9,98,93,72,30.37,29.96,33,11,33,0.14
2014-12-4,44.7,37.9,31.1,32.7,25.6,19.4,84,63,38,30.56,30.15,20,4,20,0.00
2014-12-5,44.9,37.6,28.1,43.4,30.1,19.4,95,74,64,30.67,30.41,20,7,21,0.22
2014-12-6,51.2,46.3,39.7,50.3,45.1,38.6,97,96,92,30.41,30.13,22,7,24,1.36
2014-12-7,39.7,34.0,23.6,38.6,22.8,7.4,97,66,42,30.65,30.17,27,12,30,0.11
2014-12-8,29.3,24.8,21.7,99.9,22.2,8.0,96,76,52,30.73,30.43,24,9,26,0.00
2014-12-9,53.2,42.8,29.5,52.8,42.3,28.3,100,98,96,30.43,29.46,32,11,36,1.91
2014-12-10,41.9,40.1,35.7,41.3,39.3,34.6,99,97,95,29.59,29.46,14,4,15,0.00
2014-12-11,35.8,33.5,30.4,34.5,29.3,25.4,96,85,77,29.85,29.51,21,8,24,0.00
2014-12-12,36.9,31.7,26.1,28.9,26.4,23.4,90,81,70,29.95,29.85,15,4,15,0.00
2014-12-13,41.1,34.4,30.7,29.2,27.3,25.8,84,76,61,29.93,29.82,19,5,19,0.00
2014-12-14,46.2,36.1,29.8,33.1,29.6,26.1,92,78,59,29.96,29.81,13,3,15,0.00
2014-12-15,41.4,33.3,26.4,34.4,30.0,25.1,97,88,71,30.17,29.94,10,1,10,0.00
2014-12-16,45.2,39.6,31.2,43.8,37.2,29.6,96,91,87,30.17,29.90,12,4,13,0.00
2014-12-17,51.0,45.2,40.1,45.6,41.6,32.1,97,88,73,29.90,29.73,21,5,21,0.24
2014-12-18,42.4,38.3,32.6,34.0,30.5,27.2,86,74,62,29.94,29.80,27,7,29,0.00
2014-12-19,38.1,34.4,29.3,29.2,25.8,22.3,81,71,61,30.17,29.92,18,4,18,0.00
2014-12-20,35.9,31.6,26.7,31.1,26.1,21.7,93,80,71,30.29,30.16,17,5,22,0.00
2014-12-21,37.2,35.3,32.9,34.9,33.2,31.1,94,92,89,30.36,30.26,16,7,17,0.00
2014-12-22,45.1,39.9,32.7,41.5,36.7,30.3,93,89,82,30.39,30.26,19,7,19,0.00
2014-12-23,47.0,45.1,42.3,46.4,44.1,40.5,98,96,90,30.27,30.10,17,8,21,0.14
2014-12-24,57.2,48.8,44.1,56.9,48.3,43.5,99,98,98,30.11,29.62,34,9,37,0.76
2014-12-25,55.0,49.2,42.7,54.4,43.4,32.0,99,82,52,30.05,29.55,27,10,33,0.01
2014-12-26,50.2,42.4,36.9,37.2,33.4,30.9,86,71,54,30.23,30.05,18,4,18,0.00
2014-12-27,48.1,42.1,34.8,42.6,36.7,29.6,92,81,60,30.27,30.10,16,5,17,0.00
2014-12-28,49.9,46.1,39.5,45.3,41.7,29.9,95,85,68,30.10,29.82,24,9,25,0.01
2014-12-29,41.5,36.5,30.9,29.9,24.4,17.3,81,62,51,30.26,30.04,16,4,16,0.00
2014-12-30,30.9,21.6,20.4,99.9,27.7,6.7,67,43,37,30.40,30.25,15,3,18,0.00
2014-12-31,30.4,20.9,17.1,99.9,25.1,5.5,72,44,39,30.38,30.18,17,3,18,0.00
2015-1-1,39.9,31.2,23.8,27.2,15.9,6.6,62,53,43,30.18,29.97,32,10,34,0.00
2015-1-2,41.5,37.3,33.7,25.2,22.0,20.3,59,54,48,30.19,30.00,23,7,23,0.00